Massena, NY

9:02 AM EST on December 08, 2019 (GMT -0500)
Massena International-Richards

Weather History for KMSS - October, 2019

Change the Weather History Date:

Friday, October 25, 2019

  Actual Average Record
Temperature  
Mean Temperature 42 °F 43 °F  
Max Temperature 51 °F 53 °F 80 °F (1963)
Min Temperature 33 °F 34 °F 19 °F (2002)
Degree Days  
Heating Degree Days 23 22  
Month to date heating degree days 407 444  
Since 1 July heating degree days 622 744  
Cooling Degree Days 0 0  
Month to date cooling degree days 0 0  
Year to date cooling degree days 398 361  
Moisture  
Dew Point 37 °F    
Average Humidity 77    
Maximum Humidity 92    
Minimum Humidity 61    
Precipitation  
Precipitation 0.00 in 0.10 in 1.29 in (2008)
Month to date precipitation 4.02 2.68  
Year to date precipitation 27.73 28.87  
Sea Level Pressure  
Sea Level Pressure 30.29 in    
Wind  
Wind Speed 2 mph (WSW)    
Max Wind Speed 9 mph    
Max Gust Speed 11 mph    
Visibility 10 miles    
Events      
T = Trace of Precipitation, MM = Missing Value Source: NWS Daily Summary

Daily Weather History Graph

Daily Weather History Graph

Search for Another Location

Airport or City:

Astronomy

Oct. 25, 2019 Rise Set
Actual Time 7:27 AM EDT 5:58 PM EDT
Civil Twilight 6:57 AM EDT 6:28 PM EDT
Nautical Twilight 6:23 AM EDT 7:02 PM EDT
Astronomical Twilight 5:49 AM EDT 7:36 PM EDT
Moon 3:54 AM EDT (10/25) 5:09 PM EDT (10/25)
Length of Visible Light 11h 30m
Length of Day
10h 30m
Waning Crescent, 9% of the Moon is Illuminated
Oct 25
Waning Crescent
Oct 27
New
Nov 4
First Quarter
Nov 12
Full
Nov 19
Last Quarter

Hourly Weather History & Observations

Time (EDT) Temp. Windchill Dew Point Humidity Pressure Visibility Wind Dir Wind Speed Gust Speed Precip Events Conditions
12:53 AM 46.0 °F 41.9 °F 36.0 °F 68% 30.30 in 10.0 mi West 8.1 mph - N/A   Clear
1:53 AM 41.0 °F 39.0 °F 36.0 °F 82% 30.32 in 10.0 mi SSW 3.5 mph - N/A   Clear
2:53 AM 39.9 °F 37.8 °F 36.0 °F 86% 30.33 in 10.0 mi SSW 3.5 mph - N/A   Clear
3:53 AM 39.0 °F - 36.0 °F 89% 30.32 in 10.0 mi Calm Calm - N/A   Clear
4:53 AM 37.9 °F - 35.1 °F 89% 30.34 in 10.0 mi Calm Calm - N/A   Clear
5:53 AM 37.9 °F - 35.1 °F 89% 30.34 in 10.0 mi Calm Calm - N/A   Clear
6:53 AM 39.0 °F - 36.0 °F 89% 30.34 in 10.0 mi Calm Calm - N/A   Clear
7:53 AM 37.9 °F - 36.0 °F 93% 30.36 in 10.0 mi Calm Calm - N/A   Clear
8:53 AM 42.1 °F 40.2 °F 37.9 °F 85% 30.36 in 10.0 mi SW 3.5 mph - N/A   Clear
9:53 AM 44.1 °F 41.5 °F 39.0 °F 82% 30.34 in 10.0 mi SSW 4.6 mph - N/A   Clear
10:53 AM 45.0 °F - 39.0 °F 80% 30.34 in 10.0 mi Calm Calm - N/A   Overcast
11:53 AM 46.0 °F 44.8 °F 37.9 °F 73% 30.33 in 10.0 mi SW 3.5 mph - N/A   Partly Cloudy
12:53 PM 46.9 °F - 39.0 °F 74% 30.32 in 10.0 mi WSW 5.8 mph - N/A   Clear
1:53 PM 48.9 °F - 39.0 °F 69% 30.28 in 10.0 mi WSW 3.5 mph - N/A   Clear
2:53 PM 50.0 °F - 37.9 °F 63% 30.25 in 10.0 mi West 5.8 mph - N/A   Clear
3:53 PM 50.0 °F - 37.0 °F 61% 30.25 in 10.0 mi West 5.8 mph - N/A   Clear
4:53 PM 48.9 °F - 37.0 °F 64% 30.23 in 10.0 mi West 4.6 mph - N/A   Clear
5:53 PM 48.0 °F - 37.0 °F 66% 30.23 in 10.0 mi Calm Calm - N/A   Clear
6:53 PM 45.0 °F - 37.0 °F 74% 30.23 in 10.0 mi Calm Calm - N/A   Clear
7:53 PM 43.0 °F - 37.9 °F 82% 30.23 in 10.0 mi Calm Calm - N/A   Overcast
8:53 PM 42.1 °F - 37.9 °F 85% 30.22 in 10.0 mi Calm Calm - N/A   Mostly Cloudy
9:53 PM 42.1 °F - 37.0 °F 82% 30.21 in 10.0 mi Calm Calm - N/A   Overcast
10:53 PM 37.9 °F - 35.1 °F 89% 30.21 in 10.0 mi Calm Calm - N/A   Clear
11:53 PM 34.0 °F - 32.0 °F 92% 30.21 in 9.0 mi Calm Calm - N/A   Clear